This is the latest recevied weather packets stored in our database for station/object K7FLA. If no packets are shown the sender has not sent any weather packets the latest 10 day(s).
| Time | Temp. | Humidity | Pressure | Rain* | Wind** | Luminosity | Snow |
|---|---|---|---|---|---|---|---|
| 1788312294 | 27.22° C | 24% | 1095.3 hPa | 0 mm | - | 28 W/m² | - |
| 1788311973 | 27.78° C | 24% | 1095.2 hPa | 0 mm | - | 31 W/m² | - |
| 1788311668 | 27.78° C | 24% | 1095.1 hPa | 0 mm | - | 41 W/m² | - |
| 1788311368 | 27.78° C | 24% | 1095.3 hPa | 0 mm | - | 52 W/m² | - |
| 1788311063 | 27.78° C | 24% | 1095.2 hPa | 0 mm | - | 63 W/m² | - |
| 1788310762 | 28.33° C | 24% | 1095.3 hPa | 0 mm | - | 73 W/m² | - |
| 1788310461 | 28.33° C | 25% | 1095.2 hPa | 0 mm | - | 81 W/m² | - |
| 1788310158 | 28.89° C | 25% | 1095.3 hPa | 0 mm | - | 90 W/m² | - |
| 1788309857 | 28.89° C | 25% | 1095.3 hPa | 0 mm | - | 100 W/m² | - |
| 1788309553 | 28.89° C | 24% | 1095.4 hPa | 0 mm | - | 111 W/m² | - |
| 1788309252 | 28.89° C | 25% | 1095.2 hPa | 0 mm | - | 124 W/m² | - |
| 1788308949 | 28.89° C | 25% | 1095.3 hPa | 0 mm | - | 131 W/m² | - |
| 1788308648 | 29.44° C | 25% | 1095.4 hPa | 0 mm | - | 150 W/m² | - |
| 1788308343 | 28.89° C | 25% | 1095.4 hPa | 0 mm | - | 163 W/m² | - |
| 1788308038 | 29.44° C | 25% | 1095.3 hPa | 0 mm | - | 177 W/m² | - |
| 1788307733 | 29.44° C | 26% | 1095.2 hPa | 0 mm | - | 195 W/m² | - |
| 1788307428 | 29.44° C | 25% | 1095.3 hPa | 0 mm | - | 214 W/m² | - |
| 1788307123 | 29.44° C | 25% | 1095.2 hPa | 0 mm | - | 228 W/m² | - |
| 1788306822 | 30° C | 25% | 1095.3 hPa | 0 mm | - | 240 W/m² | - |
| 1788306518 | 30° C | 25% | 1095.4 hPa | 0 mm | - | 252 W/m² | - |
| 1788306221 | 30° C | 25% | 1095.3 hPa | 0 mm | - | 263 W/m² | - |
| 1788305907 | 30.56° C | 24% | 1095.3 hPa | 0 mm | - | 277 W/m² | - |
| 1788305602 | 30.56° C | 25% | 1095.4 hPa | 0 mm | - | 295 W/m² | - |
| 1788305298 | 30.56° C | 24% | 1095.1 hPa | 0 mm | - | 309 W/m² | - |
| 1788304992 | 31.11° C | 23% | 1095.3 hPa | 0 mm | - | 327 W/m² | - |
* Rain latest hour (hover to see other rain measurements)
** Current wind speed in m/s (hover to see current wind gust speed)